Weather in Tombouctou

Mali     16˚46′37″N   3˚00′23″W
temp.,
°C
wind,
m/s
gust,
m/s
humid.,
%
clouds,
%
prec.,
mm/h
press.,
hPa
HPBL,
m
17 january, sun
sun1700:00+18˚nne69778 0.0 1015145
03:00+17˚nne6119100 0.0 1014192
06:00+16˚nne61111100 0.0 1015178
09:00+19˚ne7109100 0.0 1016414
12:00+27˚ne67599 0.0 1015688
15:00+29˚ne55575 0.0 1011967
18:00+24˚nne45752 0.0 101324
21:00+21˚n5780 0.0 101570
18 january, mon
mon1800:00+19˚n610100 0.0 1015125
03:00+17˚nne69130 0.0 1013131
06:00+15˚ne56150 0.0 101463
09:00+20˚ne571126 0.0 1016291
12:00+28˚ne56617 0.0 1015652
15:00+31˚ne3360 0.0 10111166
18:00+26˚n4590 0.0 101224
21:00+22˚n67100 0.0 101585
19 january, tue
tue1900:00+20˚n56110 0.0 101661
03:00+19˚nne45130 0.0 101444
06:00+18˚ne45180 0.0 101545
09:00+23˚e69160 0.0 1016378
12:00+30˚e67100 0.0 10151038
15:00+33˚e5690 0.0 10121715
18:00+28˚ne56120 0.0 101335
21:00+24˚ene561412 0.0 101552
20 january, wed
wed2000:00+22˚ne561517 0.0 101542
03:00+20˚ene56160 0.0 101459
06:00+18˚e56182 0.0 101580
09:00+23˚e710120 0.0 1016357
12:00+30˚e7880 0.0 1015909
15:00+32˚ene6670 0.0 10121515
18:00+27˚ne5690 0.0 101340
21:00+23˚ne56103 0.0 101555
21 january, thu
thu2100:00+21˚ne56111 0.0 101653
03:00+19˚ne56120 0.0 101553
06:00+17˚ene56150 0.0 101656
09:00+22˚ene710135 0.0 1017383
12:00+29˚e7882 0.0 10161034
15:00+31˚ene6671 0.0 10131595
18:00+26˚ne56100 0.0 101434
21:00+23˚ne561128 0.0 101636